Date,TemperatureHighF,TemperatureAvgF,TemperatureLowF,DewpointHighF,DewpointAvgF,DewpointLowF,HumidityHigh,HumidityAvg,HumidityLow,PressureMaxIn,PressureMinIn,WindSpeedMaxMPH,WindSpeedAvgMPH,GustSpeedMaxMPH,PrecipitationSumIn
2014-2-1,83,78,75,75,73,71,91,84,73,30.11,30.03,9,3,12,0.00
2014-2-2,82,78,75,73,72,69,88,82,71,30.13,30.02,15,6,18,0.00
2014-2-3,82,78,76,75,73,72,91,85,78,30.09,30.01,14,5,17,0.00
2014-2-4,81,78,76,74,73,72,92,85,78,30.10,30.02,19,6,19,0.00
2014-2-5,85,80,76,76,74,72,88,82,72,30.10,30.00,9,2,13,0.11
2014-2-6,84,78,74,73,71,68,89,79,68,30.10,30.02,7,2,9,0.00
2014-2-7,84,78,74,73,71,69,88,79,70,30.11,30.03,10,3,13,0.00
2014-2-8,86,79,74,74,72,70,90,80,68,30.08,29.99,9,2,14,0.00
2014-2-9,83,75,72,72,70,69,94,85,67,30.08,29.97,12,3,13,0.14
2014-2-10,83,76,71,73,70,68,92,82,68,30.07,29.98,10,3,11,0.00
2014-2-11,85,77,72,72,69,67,87,77,62,30.07,29.99,6,1,8,0.00
2014-2-12,83,76,69,74,70,66,93,81,69,30.02,29.84,22,4,30,0.38
2014-2-13,77,70,62,71,63,53,91,78,65,29.98,29.78,20,9,26,0.03
2014-2-14,72,63,56,58,52,45,85,68,42,30.07,29.96,16,4,17,0.00
2014-2-15,77,70,64,67,62,58,90,75,62,30.12,29.97,11,4,17,0.00
2014-2-16,75,66,58,62,52,39,82,62,28,30.18,30.08,11,3,16,0.00
2014-2-17,77,71,65,66,62,59,92,74,60,30.19,30.11,15,4,17,0.00
2014-2-18,79,74,71,66,64,62,78,71,61,30.21,30.12,14,5,17,0.00
2014-2-19,79,76,73,70,66,64,84,73,64,30.15,30.07,15,6,18,0.00
2014-2-20,81,77,74,73,71,69,88,81,75,30.13,30.05,21,8,22,0.00
2014-2-21,85,79,77,75,73,72,87,82,69,30.10,30.01,10,4,17,0.00
2014-2-22,85,79,74,74,72,71,90,80,68,30.11,30.00,8,2,9,0.00
2014-2-23,86,79,74,75,73,71,91,81,68,30.08,29.99,10,2,11,0.00
2014-2-24,83,78,73,74,72,68,93,82,71,30.04,29.97,12,2,15,0.33
2014-2-25,84,77,73,71,70,68,88,78,60,30.04,29.92,10,4,14,0.00
2014-2-26,83,77,70,73,70,65,91,79,65,29.96,29.80,12,4,16,0.00
2014-2-27,81,76,67,72,70,65,92,81,73,29.93,29.80,18,6,25,0.18
2014-2-28,74,70,67,66,64,57,93,82,65,30.07,29.88,13,4,19,0.08